Location: Gaspur (historical)
(33.7814°N, 118.2212°W)
Time: 17:45:46
(UTC+00:00)

Cosmos 1315 Rocket - Pass Details

Date: 29 October 2020
Orbit: 530 x 567 km, 81.2° (Epoch: 23 November)

Event Time Altitude Azimuth Distance (km) Brightness Sun altitude
Rises 13:19:04 0° 355° (N) 2,764 6.2 -11.2°
Reaches altitude 10° 13:21:16 10° 357° (N) 1,866 5.4 -10.7°
Maximum altitude 13:25:23 68° 81° (E) 612 3.3 -9.9°
Drops below altitude 10° 13:29:28 10° 165° (SSE) 1,857 5.9 -9.0°
Sets 13:31:39 0° 168° (SSE) 2,748 6.7 -8.6°
